Regional Weather Roundup
Issued by NWS Cleveland, OH

Home | Current Version | Previous Version | Graphics & Text | Print | Product List | Glossary On
Versions: 1 2 3 4 5 6 7 8 9 10 11 12 13 14 15 16 17 18 19 20 21 22 23 24 25 26 27 28 29 30 31 32 33 34 35 36 37 38 39 40 41 42 43 44 45 46 47 48 49 50
758
ASUS41 KCLE 190502
RWRCLE
OHIO REGIONAL WEATHER ROUNDUP
NATIONAL WEATHER SERVICE CLEVELAND, OH
1200 AM EST MON FEB 19 2018

NOTE: "FAIR" INDICATES FEW OR NO CLOUDS BELOW 12,000 FEET WITH NO
SIGNIFICANT WEATHER AND/OR OBSTRUCTIONS TO VISIBILITY.

OHZ001>008-015>018-024>027-034-035-043-044-190600-
   NORTHWEST OHIO

CITY           SKY/WX    TMP DP  RH WIND       PRES   REMARKS
DEFIANCE       FAIR      35  29  78 SE6       30.06F
FINDLAY        FAIR      36  28  73 SE10      30.07F
TOLEDO EXPRESS FAIR      34  30  85 SE6       30.07F WCI  29
TOLEDO EXEC    FAIR      34  27  75 SE8       30.10F WCI  27
LIMA           FAIR      37  31  78 S15       30.06F
$$

OHZ009>014-019>023-028>033-038-089-190600-
   NORTHEAST OHIO

CITY           SKY/WX    TMP DP  RH WIND       PRES   REMARKS
CLE-HOPKINS    MOCLDY    36  27  69 S12       30.16F
CLE-LAKEFRONT  FAIR      36  26  67 SE9       30.14F
CUY CO. ARPT   NOT AVBL
LORAIN-ELYRIA  FAIR      34  24  67 S13       30.13F WCI  25
ASHTABULA      FAIR      34  26  72 SE13G20   30.16F WCI  25
AKRON-CANTON   MOCLDY    35  26  69 SE14      30.15F WCI  26
WOOSTER        FAIR      32  27  81 SE8       30.14F WCI  25
MANSFIELD      FAIR      35  27  72 SE12      30.11F WCI  27
YOUNGSTOWN     MOCLDY    34  26  72 SE15      30.16F WCI  24
$$

OHZ042-051>053-060>062-070>072-077>081-190600-
  SOUTHWEST OHIO

CITY           SKY/WX    TMP DP  RH WIND       PRES   REMARKS
CINC-COVINGTON CLOUDY    43  34  70 SE10      30.10F
CINC-LUNKEN    CLOUDY    39  37  92 CALM      30.13F
HAMILTON       MOCLDY    42  33  70 VRB3      30.11F
DAYTON         CLOUDY    38  32  79 SE15      30.09F
WRIGHT-PAT AFB FAIR      38  31  75 SE7       30.10F
DAYTON GENERAL FAIR      41  31  67 SE12      30.08F
WILMINGTON     FAIR      37  32  82 SE8       30.11F
$$

OHZ036-037-039>041-045>050-054>059-063>069-073>076-082>088-190600-
  CENTRAL AND SOUTHEAST OHIO

CITY           SKY/WX    TMP DP  RH WIND       PRES   REMARKS
COLUMBUS       MOCLDY    38  29  70 SE13      30.13F
OSU AIRPORT    FAIR      37  30  75 SE9       30.12F
BOLTON FIELD   FAIR      35  30  80 SE9       30.14F WCI  28
RICKENBACK AFB FAIR      36  30  80 CALM      30.14F
NEWARK         FAIR      37  28  70 SE5       30.14F
MARION         FAIR      35  28  75 S13       30.11F WCI  26
LANCASTER      FAIR      36  29  75 SE6       30.14F
ZANESVILLE     FAIR      33  27  78 SE3       30.16F
NEW PHILLY     NOT AVBL
$$




USA.gov is the U.S. government's official web portal to all federal, state and local government web resources and services.